Regional Weather Roundup
Issued by NWS

Home | Current Version | Previous Version | Text Only | Print | Product List | Glossary Off
Versions: 1 2 3 4 5 6 7 8 9 10 11 12 13 14 15 16 17 18 19 20 21 22 23 24 25 26 27 28 29 30 31 32 33 34 35 36 37 38 39 40 41 42 43 44 45 46 47 48 49 50

000
ASUS43 KBIS 230602
RWRND

NORTH DAKOTA REGIONAL WEATHER ROUNDUP
NATIONAL WEATHER SERVICE BISMARCK ND
100 AM CDT THU MAR 23 2017

NOTE: "FAIR" INDICATES FEW OR NO CLOUDS BELOW 12,000 FEET WITH NO
SIGNIFICANT WEATHER AND/OR OBSTRUCTIONS TO VISIBILITY.


NDZ001>003-009>011-017-230700-
NORTHWEST NORTH DAKOTA

CITY           SKY/WX    TMP DP  RH WIND       PRES   REMARKS
WILLISTON      FAIR      31  28  89 CALM      29.78S
6HR MIN TEMP:  29; 6HR MAX TEMP:  52;

MINOT          FAIR      34  29  82 S9        29.80F
MINOT AFB      CLEAR     31  28  90 S6        29.81S
$$

NDZ018>021-031>035-040>046-230700-
SOUTHWEST NORTH DAKOTA

CITY           SKY/WX    TMP DP  RH WIND       PRES   REMARKS
BISMARCK       FAIR      34  27  75 SE8       29.85F
6HR MIN TEMP:  33; 6HR MAX TEMP:  44;

DICKINSON      FAIR      33  29  85 SE3       29.78R
GARRISON         N/A     31  28  89 SE6       29.82F
6HR MIN TEMP:  30; 6HR MAX TEMP:  40;

HETTINGER ARPT PTCLDY    34  29  82 E7        29.78S
$$

NDZ004>008-012>016-024-026-027-054-230700-
NORTHEAST NORTH DAKOTA

CITY           SKY/WX    TMP DP  RH WIND       PRES   REMARKS
GRAND FORKS    CLOUDY    34  21  59 S17G31    30.00F
GRND FRKS AFB  CLOUDY    33  25  70 S20G32    29.99F
DEVILS LAKE    FAIR      30  25  81 S15       29.92F WCI  19
$$

NDZ022-023-025-028>030-036>039-047>053-230700-
SOUTHEAST NORTH DAKOTA

CITY           SKY/WX    TMP DP  RH WIND       PRES   REMARKS
FARGO          PTCLDY    36  25  64 S21G32    30.04F
6HR MIN TEMP:  33; 6HR MAX TEMP:  36;

JAMESTOWN      FAIR      30  24  78 SE15      29.92F WCI  19
$$





USA.gov is the U.S. government's official web portal to all federal, state and local government web resources and services.